カタログに戻る

CZ-6A DEB

運用中SSO
NORAD 54956·DEBRIS·🇨🇳 China

打ち上げ Nov 11, 2022 から Taiyuan Satellite Launch Center

Loading…

次のパス (今後24時間)

TLE

最新Source: Space-Track

元期: Sep 14, 2026, 09:18 UTC

1 54956U 22151SV  26257.38796043  .00000595  00000-0  39530-3 0  9994
2 54956  98.9114 233.9520 0133921 115.7484 245.7574 14.00772835195732

AllMySatでCZ-6A DEBをリアルタイム追跡

Download on the App Store